Flag for U.S.A. Weather past 2 weeks in Baltimore, Maryland, U.S.A.

Now
33 °F

Clear.


Feels Like: 33 °F
Forecast: 34 / 54 °F
Wind: No wind

Location: Baltimore-Washington International Airport


UV Index: 3 (Moderate)

Visibility: 10 mi


Pressure: 30.55 "Hg

Humidity: 75%

Dew point: 26 °F

Location of BaltimoreLocation

Historic Weather in Baltimore

°F

Baltimore temperature yesterday

Maximum temperature yesterday: 49 °F (at 4:54 PM)
Minimum temperature yesterday: 31 °F (at 5:54 AM)
Average temperature yesterday: 39 °F

Past Weeks' High & Low Weather Summary

 TemperatureHumidityPressure
High83 °F (Apr 13, 3:54 PM)100% (Apr 5, 6:54 AM)30.55 "Hg (Apr 5, 6:54 AM)
Low31 °F (Apr 16, 5:54 AM)20% (Apr 6, 3:54 PM)29.46 "Hg (Apr 8, 6:54 AM)
Average54 °F60%29.99 "Hg
* Reported Apr 2 2:54 AM — Apr 17 2:54 AM, Baltimore, Weather by CustomWeather, © 2014

Note: Actual official high and low records may vary slightly from our data, if they occured in-between our weather recording intervals... More about our weather records

Advertising

Historic Weather Conditions — Data for Previous 24 hours

 ConditionsComfort  
Time TempWeatherWind HumidityBarometerVisibility
2:54 AM
Apr 17
33 °FClear.No wind75%30.55 "Hg10 mi
1:54 AM33 °FClear.No wind70%30.55 "Hg10 mi
12:54 AM35 °FClear.No wind64%30.54 "Hg10 mi
11:54 PM
Apr 16
36 °FClear.No wind62%30.54 "Hg10 mi
10:54 PM39 °FClear.No wind53%30.51 "Hg10 mi
9:54 PM42 °FClear.3 mph41%30.51 "Hg10 mi
8:54 PM42 °FPassing clouds.5 mph41%30.49 "Hg10 mi
7:54 PM44 °FPassing clouds.8 mph35%30.46 "Hg10 mi
6:54 PM46 °FPassing clouds.8 mph31%30.45 "Hg10 mi
5:54 PM47 °FPassing clouds.9 mph29%30.44 "Hg10 mi
4:54 PM49 °FPassing clouds.13 mph28%30.42 "Hg10 mi
3:54 PM48 °FPassing clouds.8 mph25%30.42 "Hg10 mi
2:54 PM46 °FSunny.8 mph30%30.43 "Hg10 mi
1:54 PM45 °FPassing clouds.9 mph28%30.45 "Hg10 mi
12:54 PM42 °FPassing clouds.12 mph33%30.45 "Hg10 mi
11:54 AM41 °FPassing clouds.14 mph32%30.45 "Hg10 mi
10:54 AM39 °FPassing clouds.13 mph36%30.43 "Hg10 mi
9:54 AM36 °FPassing clouds.13 mph38%30.41 "Hg10 mi
8:54 AM35 °FPassing clouds.14 mph40%30.37 "Hg10 mi
7:54 AM33 °FPassing clouds.14 mph45%30.33 "Hg10 mi
6:54 AM31 °FPassing clouds.10 mph49%30.29 "Hg10 mi
5:54 AM31 °FPassing clouds.12 mph49%30.23 "Hg10 mi
4:54 AM32 °FPassing clouds.8 mph50%30.20 "Hg10 mi
Weather by CustomWeather, © 2014

See weather overview